Terminal Aerodrome Forecast
Issued by NWS Newport/Morehead City, NC

Home | Current Version | Previous Version | Graphics & Text | Print | Product List | Glossary On
Versions: 1 2 3 4 5 6 7 8 9 10 11 12 13 14
000
FTUS42 KMHX 250842 AAB
TAFEWN
TAF AMD
KEWN 250842Z 2509/2606 VRB03KT 3SM BR SKC
      TEMPO 2509/2512 1/2SM FG
     FM251200 14006KT P6SM SCT050=

USA.gov is the U.S. government's official web portal to all federal, state and local government web resources and services.